星链-3880 (STARLINK-3880 )

导读

STARLINK-3880是美国SpaceX星链项目的卫星,于北京时间2022年4月29日8点发射升空,属于星链低轨互联网星座组网卫星。该卫星依托猎鹰九号火箭执行发射任务,旨在为全球提供高速低延迟互联网覆盖服务,是星链大规模星座部署计划中的一环,推动了星链星座的组网进程。

基本信息
目录编号:
52334
目录名称:
STARLINK-3880
国际标识:
2022-045D
轨道中心:
EARTH
卫星名称:
星链-3880
卫星全名:
星链-3880 (STARLINK-3880 )
卫星状态:
在轨 (已飞行1590 天)
发射日期:
2022-04-29 UTC
国别 :
美国 (US)
星等 :
--
轨道信息
数据来源 国际轨道数据
星历时间: 2026-09-05T16:00:02+0800
11小时前
查看轨道信息
半长轴: 6885.477km
偏心率: 0.000103
轨道倾角: 53.161°
近地点辐角 175.913°
升交点赤经 121.800°
平近点角 230.038°
近地点: 506.63km
远地点: 508.05km
周期: 94.768分钟
每日圈数: 15.195037
详细信息
固有亮度:
5
最大亮度:
2.5
卫星平台:
Starlink v1.5
覆盖范围:
全球
运营商:
太空探索技术公司
运营商所在国:
美国
制造商(研发单位):
太空探索技术公司
制造商所在国:
美国
使用方式:
暂无
卫星简介
星链(Starlink)计划是由太空探索技术公司(SpaceX)提出的一个巨型低轨卫星互联网星座项目,计划在2019年至2024年间在太空搭建由约1.2万颗卫星组成的“星链”网络,其中1584颗将部署在地球上空550千米处的近地轨道,并从2020年开始工作。该卫星仍在工作。
2D轨道图
3D轨道图
轨道高度分析图
轨道倾角分析图
轨道综合分析图
查看轨道综合分析图
交会数据列表
事件ID 空间交会对象 最接近时刻(TCA) 交会距离 交会风险概率(CRP) 交会风险指数(CRI) 操作
CDM_260901-081605-233406-386921
2026-09-01T
08:16:00+0000
0.134 km
中距离
6.973548E-4 高风险 0.92
CDM_260907-203904-378605-233421
ITASAT (43786)
2026-09-07T
20:39:50+0000
1.797 km
极远距离
3.809966E-6 低风险 0.47
CDM_260907-034505-233406-863522
CANVAS (68635)
2026-09-07T
03:45:29+0000
2.369 km
极远距离
1.569402E-6 低风险 0.39
CDM_260830-005105-233406-722021
2026-08-30T
00:51:32+0000
2.609 km
极远距离
1.198365E-6 低风险 0.37